Regional Weather Roundup
Issued by NWS

Home | Current Version | Previous Version | Text Only | Print | Product List | Glossary Off
Versions: 1 2 3 4 5 6 7 8 9 10 11 12 13 14 15 16 17 18 19 20 21 22 23 24 25 26 27 28 29 30 31 32 33 34 35 36 37 38 39 40 41 42 43 44 45 46 47 48 49 50

000
ASUS45 KTFX 200819
RWRMT
MONTANA HOURLY WEATHER ROUNDUP
NATIONAL WEATHER SERVICE GREAT FALLS MT
219 AM MDT WED AUG 20 2014

NOTE: "FAIR" INDICATES FEW OR NO CLOUDS BELOW 12000 FEET WITH NO
SIGNIFICANT WEATHER AND/OR OBSTRUCTIONS TO VISIBILITY.

* THESE STATIONS ARE NOT UNDER NWS QUALITY CONTROL. THEY DO NOT
   REPORT WEATHER SUCH AS PRECIPITATION OR FOG.

MTZ001>007-043-200900-
WEST OF THE DIVIDE
CITY           SKY/WX    TMP DP  RH WIND       PRES   REMARKS
KALISPELL      MOCLDY    57  55  93 CALM      29.78R
MISSOULA       CLOUDY    63  46  54 E5        29.81R
BUTTE          PTCLDY    52  43  72 S6        29.92S
MULLAN PASS    CLEAR     54  45  72 S8        29.91F
$$

MTZ008-052>055-200900-
SOUTHWEST MONTANA
CITY           SKY/WX    TMP DP  RH WIND       PRES   REMARKS
BOZEMAN        MOCLDY    57  48  72 N6        29.85S
DILLON         PTCLDY    55  46  72 SE8       29.91S
W YELLOWSTONE  MOCLDY    46  46 100 CALM      30.03F
$$

MTZ009>010-012-014-046-048-049-054-200900-
EAST SLOPES AND CENTRAL MONTANA
CITY           SKY/WX    TMP DP  RH WIND       PRES   REMARKS
CUT BANK       MOCLDY    55  50  83 W6        29.81R
GREAT FALLS    CLOUDY    63  52  68 E6        29.78R
HELENA         LGT RAIN  64  55  73 NE5       29.79F
MALMSTROM AFB  PTCLDY    61  50  67 SW3       29.79S
$$

MTZ011-013-016-021-035-040-045-047-050-051-200900-
NORTH CENTRAL MONTANA
CITY           SKY/WX    TMP DP  RH WIND       PRES   REMARKS
HAVRE          PTCLDY    61  54  78 SW8       29.71R
LEWISTOWN      CLOUDY    66  45  47 W8        29.78R
$$

MTZ017>020-022>027-061-062-200900-
NORTHEAST MONTANA
CITY           SKY/WX    TMP DP  RH WIND       PRES   REMARKS
GLASGOW        MOCLDY    68  50  53 SE6       29.58F
GLENDIVE       MOCLDY    72  57  59 SE9       29.65F
JORDAN         PTCLDY    61  54  78 SW5       29.61S
SIDNEY         CLOUDY    64  57  78 CALM      29.63S
WOLF POINT     MOCLDY    63  45  52 NE5       29.58F
$$

MTZ028>042-056>058-200900-
SOUTHCENTRAL AND SOUTHEAST MONTANA
CITY           SKY/WX    TMP DP  RH WIND       PRES   REMARKS
BAKER          CLEAR     68  57  68 SE15      29.68F
BILLINGS       MOCLDY    72  43  35 SW13      29.75S
LIVINGSTON     CLOUDY    66  43  43 SW15G29   29.81R
MILES CITY     MOCLDY    72  48  43 S3        29.63S
$$

REGIONAL REPORTS...DAKOTAS
CITY           SKY/WX    TMP DP  RH WIND       PRES   REMARKS
WILLISTON      PTCLDY    70  61  73 CALM      29.63F
DICKINSON      PTCLDY    63  57  81 S8        29.67F
BEACH          N/A       63  61  93 SE10      29.67S
CROSBY         CLEAR     68  64  87 S15G22    29.62S
TIOGA          CLEAR     66  66 100 SE8       29.69F
WATFORD CITY   CLEAR     66  61  84 SE7       29.63S
BISMARCK       CLEAR     68  61  78 E7        29.71F
GRAND FORKS    CLEAR     63  61  93 S3        29.76S
FARGO          PTCLDY    66  63  90 SE6       29.76F
BUFFALO SD     PTCLDY    72  61  68 SE8       29.63F
RAPID CITY     CLOUDY    70  55  59 SE10      29.74F
$$

REGIONAL REPORTS...WYOMING/IDAHO/WASHINGTON
CITY           SKY/WX    TMP DP  RH WIND       PRES   REMARKS
GILLETTE       CLOUDY    75  45  34 SW18G25   29.75S
SHERIDAN       CLOUDY    73  43  34 W13       29.75R
CODY           CLOUDY    66  45  47 W10       29.86F
YELLOWSTONE LA CLOUDY    46  43  89 NW3       30.10F
SALMON         CLOUDY    57  52  83 CALM      29.89S
MULLAN PASS    CLEAR     54  45  72 S8        29.91S
SAND POINT     MOCLDY    61  61 100 N8        29.74S
SPOKANE        PTCLDY    66  54  65 E3        29.71F
$$

REGIONAL REPORTS...ALBERTA
CITY           SKY/WX    TMP DP  RH WIND       PRES   REMARKS
CALGARY        MOCLDY    57  55  93 N6        29.79R
LETHBRIDGE     CLOUDY    54  52  93 SW7       29.76S
MEDICINE HAT   CLEAR     57  55  93 W6        29.70S
EDMONTON       MOCLDY    54  52  93 NW6       29.75S
WATERTON GATE  N/A       57  48  72 SW3        N/A
CARDSTON       N/A       55  52  90 SW5        N/A
MILK RIVER     N/A       52  50  93 W2         N/A
$$

REGIONAL REPORTS...SASKATCHEWAN
CITY           SKY/WX    TMP DP  RH WIND       PRES   REMARKS
SWIFT CURRENT  PTCLDY    63  57  81 NW16G23   29.65F
REGINA         MOCLDY    64  61  90 E8        29.62R
VAL MARIE      N/A       57  54  90 W6         N/A
ASSINIBOIA     N/A       63  57  81 SE8        N/A
CORONACH       N/A       57  55  93 S5         N/A

$$




USA.gov is the U.S. government's official web portal to all federal, state and local government web resources and services.